| time (UTC) | temp F | wind direction | speed MPH | gust MPH | rain 1hr in | rain 24hr in | rain mn in | humidity % | barometer mb |
| 20260508214533 | 52 | 28 | 0.0 | 1.0 | 0.00 | 0.00 | 0.00 | 80 | 1019.2 |
| 20260508214043 | 52 | 28 | 0.0 | 2.0 | 0.00 | 0.00 | 0.00 | 80 | 1019.2 |
| 20260508213533 | 52 | 28 | 1.0 | 2.0 | 0.00 | 0.00 | 0.00 | 79 | 1019.2 |
| 20260508213058 | 53 | 28 | 0.0 | 2.0 | 0.00 | 0.00 | 0.00 | 80 | 1019.2 |
| 20260508212546 | 53 | 28 | 0.0 | 1.0 | 0.00 | 0.00 | 0.00 | 80 | 1019.1 |
| 20260508212035 | 53 | 28 | 0.0 | 1.0 | 0.00 | 0.00 | 0.00 | 80 | 1019.2 |
| 20260508211543 | 53 | 28 | 0.0 | 1.0 | 0.00 | 0.00 | 0.00 | 80 | 1019.2 |
| 20260508211033 | 53 | 28 | 0.0 | 1.0 | 0.00 | 0.00 | 0.00 | 80 | 1019.2 |
| 20260508210538 | 53 | 28 | 0.0 | 1.0 | 0.00 | 0.00 | 0.00 | 80 | 1019.1 |
| 20260508210039 | 53 | 28 | 0.0 | 1.0 | 0.00 | 0.00 | 0.00 | 80 | 1019.1 |
| 20260508205530 | 53 | 28 | 0.0 | 1.0 | 0.00 | 0.00 | 0.00 | 79 | 1019.1 |
| 20260508205040 | 54 | 28 | 0.0 | 1.0 | 0.00 | 0.00 | 0.00 | 80 | 1019.1 |
| 20260508204545 | 54 | 28 | 0.0 | 1.0 | 0.00 | 0.00 | 0.00 | 80 | 1019.0 |
| 20260508204034 | 54 | 28 | 0.0 | 1.0 | 0.00 | 0.00 | 0.00 | 80 | 1019.0 |
| 20260508203544 | 54 | 28 | 0.0 | 1.0 | 0.00 | 0.00 | 0.00 | 79 | 1019.0 |
| 20260508203031 | 54 | 28 | 0.0 | 2.0 | 0.00 | 0.00 | 0.00 | 79 | 1019.0 |
| 20260508202541 | 55 | 28 | 0.0 | 2.0 | 0.00 | 0.00 | 0.00 | 78 | 1019.0 |
| 20260508202045 | 55 | 28 | 1.0 | 2.0 | 0.00 | 0.00 | 0.00 | 78 | 1019.0 |
| 20260508201534 | 55 | 28 | 1.0 | 2.0 | 0.00 | 0.00 | 0.00 | 78 | 1019.0 |
| 20260508201041 | 55 | 28 | 1.0 | 2.0 | 0.00 | 0.00 | 0.00 | 78 | 1018.9 |
| 20260508200548 | 55 | 28 | 0.0 | 2.0 | 0.00 | 0.00 | 0.00 | 77 | 1018.9 |
| 20260508200031 | 56 | 28 | 1.0 | 2.0 | 0.00 | 0.00 | 0.00 | 77 | 1018.9 |
| 20260508195537 | 56 | 28 | 0.0 | 2.0 | 0.00 | 0.00 | 0.00 | 76 | 1018.9 |
| 20260508195044 | 56 | 28 | 0.0 | 3.0 | 0.00 | 0.00 | 0.00 | 76 | 1018.9 |
| 20260508194533 | 56 | 28 | 1.0 | 3.0 | 0.00 | 0.00 | 0.00 | 75 | 1018.8 |
| 20260508194042 | 56 | 28 | 0.0 | 3.0 | 0.00 | 0.00 | 0.00 | 74 | 1018.8 |
| 20260508193551 | 57 | 28 | 0.0 | 3.0 | 0.00 | 0.00 | 0.00 | 74 | 1018.8 |
| 20260508193033 | 57 | 28 | 1.0 | 3.0 | 0.00 | 0.00 | 0.00 | 73 | 1018.8 |
| 20260508192604 | 57 | 28 | 1.0 | 3.0 | 0.00 | 0.00 | 0.00 | 72 | 1018.7 |
| 20260508192051 | 58 | 28 | 1.0 | 3.0 | 0.00 | 0.00 | 0.00 | 71 | 1018.7 |
| 20260508191559 | 58 | 12 | 2.0 | 3.0 | 0.00 | 0.00 | 0.00 | 71 | 1018.6 |
| 20260508191042 | 58 | 28 | 1.0 | 3.0 | 0.00 | 0.00 | 0.00 | 70 | 1018.6 |
| 20260508190531 | 58 | 28 | 2.0 | 3.0 | 0.00 | 0.00 | 0.00 | 70 | 1018.5 |
| 20260508190033 | 59 | 28 | 1.0 | 4.0 | 0.00 | 0.00 | 0.00 | 69 | 1018.5 |
| 20260508185542 | 59 | 28 | 1.0 | 5.0 | 0.00 | 0.00 | 0.00 | 69 | 1018.4 |
| 20260508185045 | 59 | 28 | 2.0 | 5.0 | 0.00 | 0.00 | 0.00 | 69 | 1018.4 |
| 20260508184554 | 59 | 27 | 2.0 | 5.0 | 0.00 | 0.00 | 0.00 | 69 | 1018.4 |
| 20260508184103 | 59 | 331 | 3.0 | 5.0 | 0.00 | 0.00 | 0.00 | 68 | 1018.3 |
| 20260508183531 | 59 | 34 | 1.0 | 5.0 | 0.00 | 0.00 | 0.00 | 68 | 1018.3 |
| 20260508183055 | 59 | 32 | 2.0 | 5.0 | 0.00 | 0.00 | 0.00 | 67 | 1018.3 |
| 20260508182608 | 60 | 5 | 2.0 | 6.0 | 0.00 | 0.00 | 0.00 | 67 | 1018.3 |
| 20260508182036 | 60 | 19 | 2.0 | 6.0 | 0.00 | 0.00 | 0.00 | 67 | 1018.2 |
| 20260508181544 | 60 | 346 | 3.0 | 8.0 | 0.00 | 0.00 | 0.00 | 67 | 1018.1 |
| 20260508181030 | 60 | 355 | 3.0 | 8.0 | 0.00 | 0.00 | 0.00 | 66 | 1018.1 |
| 20260508180535 | 60 | 333 | 2.0 | 6.0 | 0.00 | 0.00 | 0.00 | 66 | 1018.0 |
| 20260508180037 | 60 | 9 | 3.0 | 8.0 | 0.00 | 0.00 | 0.00 | 67 | 1018.0 |
| 20260508175547 | 60 | 38 | 4.0 | 8.0 | 0.00 | 0.00 | 0.00 | 67 | 1018.0 |
| 20260508175056 | 60 | 34 | 3.0 | 8.0 | 0.00 | 0.00 | 0.00 | 67 | 1017.9 |
| 20260508174540 | 60 | 360 | 3.0 | 7.0 | 0.00 | 0.00 | 0.00 | 67 | 1017.9 |
| 20260508174047 | 60 | 5 | 3.0 | 8.0 | 0.00 | 0.00 | 0.00 | 68 | 1017.9 |
| 20260508173536 | 60 | 343 | 4.0 | 7.0 | 0.00 | 0.00 | 0.00 | 68 | 1017.8 |
| 20260508173044 | 60 | 348 | 3.0 | 8.0 | 0.00 | 0.00 | 0.00 | 68 | 1017.8 |
| 20260508172533 | 60 | 31 | 3.0 | 8.0 | 0.00 | 0.00 | 0.00 | 68 | 1017.8 |
| 20260508172037 | 60 | 18 | 2.0 | 10.0 | 0.00 | 0.00 | 0.00 | 68 | 1017.7 |
| 20260508171545 | 60 | 344 | 5.0 | 10.0 | 0.00 | 0.00 | 0.00 | 67 | 1017.7 |
| 20260508171033 | 60 | 25 | 5.0 | 10.0 | 0.00 | 0.00 | 0.00 | 68 | 1017.7 |
| 20260508170542 | 60 | 346 | 4.0 | 10.0 | 0.00 | 0.00 | 0.00 | 68 | 1017.8 |
| 20260508170044 | 60 | 331 | 5.0 | 9.0 | 0.00 | 0.00 | 0.00 | 68 | 1017.8 |
| 20260508165548 | 60 | 349 | 3.0 | 9.0 | 0.00 | 0.00 | 0.00 | 70 | 1017.8 |
| 20260508165037 | 60 | 355 | 4.0 | 11.0 | 0.00 | 0.00 | 0.00 | 71 | 1017.8 |
| 20260508164547 | 59 | 16 | 5.0 | 11.0 | 0.00 | 0.00 | 0.00 | 71 | 1017.7 |
| 20260508164034 | 60 | 360 | 5.0 | 9.0 | 0.00 | 0.00 | 0.00 | 71 | 1017.8 |
| 20260508163542 | 60 | 349 | 4.0 | 9.0 | 0.00 | 0.00 | 0.00 | 71 | 1017.7 |
| 20260508163046 | 60 | 284 | 4.0 | 9.0 | 0.00 | 0.00 | 0.00 | 70 | 1017.7 |
| 20260508162533 | 60 | 355 | 4.0 | 9.0 | 0.00 | 0.00 | 0.00 | 67 | 1017.7 |
| 20260508162041 | 61 | 336 | 5.0 | 11.0 | 0.00 | 0.00 | 0.00 | 66 | 1017.7 |
| 20260508161530 | 61 | 360 | 5.0 | 11.0 | 0.00 | 0.00 | 0.00 | 66 | 1017.7 |
| 20260508161037 | 61 | 26 | 5.0 | 9.0 | 0.00 | 0.00 | 0.00 | 65 | 1017.7 |
| 20260508160602 | 61 | 321 | 4.0 | 10.0 | 0.00 | 0.00 | 0.00 | 66 | 1017.6 |
| 20260508160043 | 61 | 337 | 3.0 | 10.0 | 0.00 | 0.00 | 0.00 | 67 | 1017.6 |
| 20260508155531 | 61 | 335 | 4.0 | 9.0 | 0.00 | 0.00 | 0.00 | 65 | 1017.6 |
| 20260508155100 | 61 | 355 | 4.0 | 9.0 | 0.00 | 0.00 | 0.00 | 65 | 1017.6 |
| 20260508154544 | 60 | 355 | 4.0 | 9.0 | 0.00 | 0.00 | 0.00 | 64 | 1017.6 |
| 20260508154034 | 60 | 14 | 5.0 | 9.0 | 0.00 | 0.00 | 0.00 | 65 | 1017.7 |
| 20260508153543 | 61 | 319 | 4.0 | 9.0 | 0.00 | 0.00 | 0.00 | 66 | 1017.7 |
| 20260508153030 | 61 | 38 | 4.0 | 9.0 | 0.00 | 0.00 | 0.00 | 66 | 1017.7 |
| 20260508152538 | 61 | 355 | 2.0 | 8.0 | 0.00 | 0.00 | 0.00 | 68 | 1017.7 |
| 20260508152107 | 60 | 346 | 3.0 | 8.0 | 0.00 | 0.00 | 0.00 | 68 | 1017.7 |
| 20260508151535 | 61 | 5 | 4.0 | 8.0 | 0.00 | 0.00 | 0.00 | 67 | 1017.8 |
| 20260508151105 | 61 | 350 | 2.0 | 10.0 | 0.00 | 0.00 | 0.00 | 67 | 1017.8 |
| 20260508150532 | 61 | 22 | 5.0 | 10.0 | 0.00 | 0.00 | 0.00 | 67 | 1017.8 |
| 20260508150034 | 61 | 306 | 3.0 | 8.0 | 0.00 | 0.00 | 0.00 | 67 | 1017.8 |
| 20260508145538 | 61 | 355 | 4.0 | 11.0 | 0.00 | 0.00 | 0.00 | 67 | 1017.8 |
| 20260508145047 | 61 | 355 | 5.0 | 11.0 | 0.00 | 0.00 | 0.00 | 66 | 1017.9 |
| 20260508144536 | 61 | 317 | 5.0 | 9.0 | 0.00 | 0.00 | 0.00 | 66 | 1017.9 |
| 20260508144045 | 61 | 333 | 4.0 | 8.0 | 0.00 | 0.00 | 0.00 | 66 | 1017.9 |
| 20260508143550 | 61 | 15 | 4.0 | 7.0 | 0.00 | 0.00 | 0.00 | 66 | 1018.0 |
| 20260508143038 | 61 | 31 | 3.0 | 7.0 | 0.00 | 0.00 | 0.00 | 67 | 1017.9 |
| 20260508142548 | 61 | 325 | 5.0 | 8.0 | 0.00 | 0.00 | 0.00 | 65 | 1018.0 |
| 20260508142036 | 61 | 331 | 4.0 | 8.0 | 0.00 | 0.00 | 0.00 | 66 | 1018.0 |
| 20260508141545 | 61 | 360 | 3.0 | 6.0 | 0.00 | 0.00 | 0.00 | 66 | 1018.0 |
| 20260508141029 | 60 | 333 | 3.0 | 8.0 | 0.00 | 0.00 | 0.00 | 67 | 1018.0 |
| 20260508140538 | 60 | 340 | 4.0 | 8.0 | 0.00 | 0.00 | 0.00 | 67 | 1018.0 |
| 20260508140040 | 60 | 25 | 3.0 | 8.0 | 0.00 | 0.00 | 0.00 | 69 | 1018.1 |
| 20260508135529 | 60 | 335 | 4.0 | 8.0 | 0.00 | 0.00 | 0.00 | 69 | 1018.1 |
| 20260508135037 | 60 | 45 | 3.0 | 8.0 | 0.00 | 0.00 | 0.00 | 70 | 1018.0 |
| 20260508134543 | 60 | 34 | 3.0 | 8.0 | 0.00 | 0.00 | 0.00 | 71 | 1018.0 |
| 20260508134034 | 60 | 300 | 4.0 | 8.0 | 0.00 | 0.00 | 0.00 | 71 | 1018.0 |
| 20260508133543 | 60 | 340 | 3.0 | 8.0 | 0.00 | 0.00 | 0.00 | 71 | 1018.1 |
| 20260508133032 | 60 | 41 | 4.0 | 8.0 | 0.00 | 0.00 | 0.00 | 70 | 1018.1 |
| 20260508132542 | 60 | 348 | 4.0 | 9.0 | 0.00 | 0.00 | 0.00 | 69 | 1018.1 |
| 20260508132048 | 60 | 17 | 4.0 | 9.0 | 0.00 | 0.00 | 0.00 | 68 | 1018.1 |
| 20260508131536 | 60 | 9 | 4.0 | 8.0 | 0.00 | 0.00 | 0.00 | 68 | 1018.0 |
| 20260508131044 | 60 | 355 | 4.0 | 9.0 | 0.00 | 0.00 | 0.00 | 69 | 1018.1 |
| 20260508130533 | 60 | 337 | 4.0 | 9.0 | 0.00 | 0.00 | 0.00 | 68 | 1018.1 |
| 20260508130036 | 60 | 306 | 4.0 | 6.0 | 0.00 | 0.00 | 0.00 | 66 | 1018.1 |
| 20260508125559 | 61 | 9 | 3.0 | 9.0 | 0.00 | 0.00 | 0.00 | 65 | 1018.0 |
| 20260508125045 | 61 | 355 | 5.0 | 9.0 | 0.00 | 0.00 | 0.00 | 66 | 1018.0 |
| 20260508124533 | 61 | 355 | 4.0 | 10.0 | 0.00 | 0.00 | 0.00 | 65 | 1018.0 |
| 20260508124041 | 62 | 355 | 5.0 | 10.0 | 0.00 | 0.00 | 0.00 | 64 | 1018.0 |
| 20260508123529 | 62 | 344 | 4.0 | 9.0 | 0.00 | 0.00 | 0.00 | 63 | 1018.0 |
| 20260508123052 | 64 | 5 | 2.0 | 8.0 | 0.00 | 0.00 | 0.00 | 58 | 1018.0 |
| 20260508122540 | 64 | 247 | 2.0 | 8.0 | 0.00 | 0.00 | 0.00 | 55 | 1018.0 |
| 20260508122048 | 64 | 360 | 2.0 | 5.0 | 0.00 | 0.00 | 0.00 | 51 | 1018.0 |
| 20260508121538 | 65 | 50 | 0.0 | 4.0 | 0.00 | 0.00 | 0.00 | 48 | 1018.0 |
| 20260508121038 | 65 | 50 | 1.0 | 6.0 | 0.00 | 0.00 | 0.00 | 47 | 1018.0 |
| 20260508120546 | 66 | 103 | 1.0 | 6.0 | 0.00 | 0.00 | 0.00 | 50 | 1018.0 |
| 20260508120047 | 67 | 96 | 2.0 | 11.0 | 0.00 | 0.00 | 0.00 | 48 | 1018.0 |
| 20260508115536 | 67 | 36 | 4.0 | 11.0 | 0.00 | 0.00 | 0.00 | 45 | 1018.0 |
| 20260508115043 | 67 | 301 | 2.0 | 9.0 | 0.00 | 0.00 | 0.00 | 47 | 1018.0 |
| 20260508114529 | 68 | 61 | 3.0 | 9.0 | 0.00 | 0.00 | 0.00 | 48 | 1018.0 |
| 20260508114038 | 68 | 49 | 1.0 | 6.0 | 0.00 | 0.00 | 0.00 | 49 | 1018.0 |
| 20260508113548 | 67 | 115 | 3.0 | 7.0 | 0.00 | 0.00 | 0.00 | 50 | 1018.0 |
| 20260508113056 | 67 | 90 | 3.0 | 7.0 | 0.00 | 0.00 | 0.00 | 53 | 1018.0 |
| 20260508112539 | 66 | 23 | 3.0 | 8.0 | 0.00 | 0.00 | 0.00 | 56 | 1018.0 |
| 20260508112029 | 65 | 51 | 3.0 | 7.0 | 0.00 | 0.00 | 0.00 | 55 | 1018.0 |
| 20260508111538 | 66 | 153 | 3.0 | 6.0 | 0.00 | 0.00 | 0.00 | 55 | 1018.0 |
| 20260508111047 | 66 | 44 | 2.0 | 5.0 | 0.00 | 0.00 | 0.00 | 57 | 1018.0 |
| 20260508110535 | 66 | 90 | 2.0 | 8.0 | 0.00 | 0.00 | 0.00 | 55 | 1018.1 |
| 20260508110054 | 65 | 59 | 2.0 | 8.0 | 0.00 | 0.00 | 0.00 | 57 | 1018.0 |
| 20260508105606 | 65 | 88 | 1.0 | 8.0 | 0.00 | 0.00 | 0.00 | 56 | 1018.1 |
| 20260508105034 | 64 | 355 | 4.0 | 8.0 | 0.00 | 0.00 | 0.00 | 60 | 1018.1 |
| 20260508104543 | 64 | 72 | 4.0 | 6.0 | 0.00 | 0.00 | 0.00 | 59 | 1018.2 |
| 20260508104033 | 64 | 51 | 3.0 | 9.0 | 0.00 | 0.00 | 0.00 | 59 | 1018.2 |
| 20260508103558 | 64 | 49 | 4.0 | 9.0 | 0.00 | 0.00 | 0.00 | 60 | 1018.2 |
| 20260508103045 | 64 | 51 | 2.0 | 6.0 | 0.00 | 0.00 | 0.00 | 62 | 1018.2 |
| 20260508102533 | 63 | 105 | 2.0 | 5.0 | 0.00 | 0.00 | 0.00 | 63 | 1018.2 |
| 20260508102041 | 63 | 111 | 2.0 | 6.0 | 0.00 | 0.00 | 0.00 | 62 | 1018.3 |
| 20260508101547 | 62 | 74 | 2.0 | 7.0 | 0.00 | 0.00 | 0.00 | 64 | 1018.4 |
| 20260508101034 | 62 | 73 | 3.0 | 7.0 | 0.00 | 0.00 | 0.00 | 64 | 1018.3 |
| 20260508100542 | 62 | 21 | 2.0 | 6.0 | 0.00 | 0.00 | 0.00 | 66 | 1018.4 |
| 20260508100044 | 62 | 49 | 3.0 | 6.0 | 0.00 | 0.00 | 0.00 | 66 | 1018.4 |
| 20260508095534 | 62 | 52 | 1.0 | 4.0 | 0.00 | 0.00 | 0.00 | 66 | 1018.5 |
| 20260508095039 | 61 | 55 | 1.0 | 5.0 | 0.00 | 0.00 | 0.00 | 66 | 1018.4 |
| 20260508094547 | 61 | 55 | 2.0 | 8.0 | 0.00 | 0.00 | 0.00 | 66 | 1018.5 |
| 20260508094036 | 61 | 49 | 2.0 | 8.0 | 0.00 | 0.00 | 0.00 | 68 | 1018.4 |
| 20260508093545 | 61 | 113 | 0.0 | 6.0 | 0.00 | 0.00 | 0.00 | 68 | 1018.4 |
| 20260508093033 | 61 | 90 | 2.0 | 8.0 | 0.00 | 0.00 | 0.00 | 68 | 1018.4 |
| 20260508092538 | 61 | 85 | 1.0 | 8.0 | 0.00 | 0.00 | 0.00 | 68 | 1018.4 |
| 20260508092047 | 60 | 146 | 2.0 | 6.0 | 0.00 | 0.00 | 0.00 | 69 | 1018.3 |
| 20260508091535 | 59 | 121 | 2.0 | 8.0 | 0.00 | 0.00 | 0.00 | 70 | 1018.3 |
| 20260508091045 | 59 | 62 | 2.0 | 8.0 | 0.00 | 0.00 | 0.00 | 70 | 1018.3 |
| 20260508090533 | 59 | 113 | 1.0 | 6.0 | 0.00 | 0.00 | 0.00 | 71 | 1018.4 |
| 20260508090031 | 58 | 128 | 1.0 | 7.0 | 0.00 | 0.00 | 0.00 | 73 | 1018.4 |
| 20260508085539 | 58 | 111 | 2.0 | 7.0 | 0.00 | 0.00 | 0.00 | 73 | 1018.4 |
| 20260508085048 | 58 | 60 | 2.0 | 6.0 | 0.00 | 0.00 | 0.00 | 73 | 1018.4 |
| 20260508084557 | 58 | 112 | 2.0 | 8.0 | 0.00 | 0.00 | 0.00 | 74 | 1018.4 |
| 20260508084041 | 57 | 123 | 1.0 | 7.0 | 0.00 | 0.00 | 0.00 | 74 | 1018.3 |
| 20260508083530 | 57 | 120 | 1.0 | 7.0 | 0.00 | 0.00 | 0.00 | 75 | 1018.3 |
| 20260508083038 | 57 | 46 | 3.0 | 8.0 | 0.00 | 0.00 | 0.00 | 76 | 1018.3 |
| 20260508082547 | 57 | 108 | 2.0 | 8.0 | 0.00 | 0.00 | 0.00 | 76 | 1018.4 |
| 20260508082035 | 56 | 118 | 1.0 | 9.0 | 0.00 | 0.00 | 0.00 | 77 | 1018.2 |
| 20260508081606 | 56 | 39 | 4.0 | 9.0 | 0.00 | 0.00 | 0.00 | 77 | 1018.2 |
| 20260508081032 | 56 | 115 | 2.0 | 7.0 | 0.00 | 0.00 | 0.00 | 77 | 1018.2 |
| 20260508080540 | 56 | 116 | 2.0 | 7.0 | 0.00 | 0.00 | 0.00 | 77 | 1018.2 |
| 20260508080039 | 56 | 70 | 3.0 | 7.0 | 0.00 | 0.00 | 0.00 | 78 | 1018.3 |
| 20260508075547 | 55 | 106 | 3.0 | 8.0 | 0.00 | 0.00 | 0.00 | 78 | 1018.3 |
| 20260508075031 | 55 | 126 | 2.0 | 6.0 | 0.00 | 0.00 | 0.00 | 78 | 1018.3 |
| 20260508074539 | 55 | 148 | 2.0 | 6.0 | 0.00 | 0.00 | 0.00 | 78 | 1018.2 |
| 20260508074048 | 55 | 107 | 2.0 | 8.0 | 0.00 | 0.00 | 0.00 | 78 | 1018.2 |
| 20260508073536 | 55 | 66 | 3.0 | 8.0 | 0.00 | 0.00 | 0.00 | 79 | 1018.2 |
| 20260508073045 | 54 | 96 | 2.0 | 9.0 | 0.00 | 0.00 | 0.00 | 80 | 1018.2 |
| 20260508072545 | 54 | 103 | 2.0 | 9.0 | 0.00 | 0.00 | 0.00 | 80 | 1018.2 |
| 20260508072034 | 54 | 51 | 3.0 | 7.0 | 0.00 | 0.00 | 0.00 | 80 | 1018.2 |
| 20260508071602 | 54 | 81 | 2.0 | 9.0 | 0.00 | 0.00 | 0.00 | 80 | 1018.2 |
| 20260508071046 | 54 | 137 | 4.0 | 9.0 | 0.00 | 0.00 | 0.00 | 81 | 1018.2 |
| 20260508070550 | 54 | 33 | 3.0 | 9.0 | 0.00 | 0.00 | 0.00 | 82 | 1018.1 |
| 20260508070031 | 54 | 61 | 4.0 | 8.0 | 0.00 | 0.00 | 0.00 | 82 | 1018.1 |
| 20260508065540 | 54 | 66 | 2.0 | 9.0 | 0.00 | 0.00 | 0.00 | 83 | 1018.0 |
| 20260508065047 | 53 | 88 | 3.0 | 9.0 | 0.00 | 0.00 | 0.00 | 83 | 1018.0 |
| 20260508064535 | 53 | 67 | 3.0 | 7.0 | 0.00 | 0.00 | 0.00 | 83 | 1018.0 |
| 20260508064041 | 53 | 85 | 2.0 | 8.0 | 0.00 | 0.00 | 0.00 | 84 | 1017.9 |
| 20260508063550 | 53 | 71 | 1.0 | 4.0 | 0.00 | 0.00 | 0.00 | 84 | 1017.9 |
| 20260508063036 | 53 | 85 | 2.0 | 8.0 | 0.00 | 0.00 | 0.00 | 85 | 1017.9 |
| 20260508062545 | 52 | 90 | 1.0 | 8.0 | 0.00 | 0.00 | 0.00 | 85 | 1017.8 |
| 20260508062030 | 52 | 72 | 2.0 | 6.0 | 0.00 | 0.00 | 0.00 | 85 | 1017.8 |
| 20260508061539 | 52 | 71 | 2.0 | 6.0 | 0.00 | 0.00 | 0.00 | 85 | 1017.8 |
| 20260508061028 | 52 | 105 | 1.0 | 6.0 | 0.00 | 0.00 | 0.00 | 85 | 1017.8 |
| 20260508060538 | 52 | 70 | 2.0 | 7.0 | 0.00 | 0.00 | 0.00 | 85 | 1017.7 |
| 20260508060038 | 52 | 138 | 2.0 | 7.0 | 0.00 | 0.00 | 0.00 | 85 | 1017.7 |
| 20260508055601 | 52 | 74 | 3.0 | 8.0 | 0.00 | 0.00 | 0.00 | 85 | 1017.8 |
| 20260508055045 | 52 | 101 | 3.0 | 9.0 | 0.00 | 0.00 | 0.00 | 85 | 1017.8 |
| 20260508054554 | 52 | 69 | 3.0 | 9.0 | 0.00 | 0.00 | 0.00 | 85 | 1017.7 |
| 20260508054041 | 52 | 89 | 2.0 | 9.0 | 0.00 | 0.00 | 0.00 | 86 | 1017.7 |
| 20260508053547 | 52 | 90 | 3.0 | 9.0 | 0.00 | 0.00 | 0.00 | 86 | 1017.7 |
| 20260508053035 | 52 | 73 | 3.0 | 6.0 | 0.00 | 0.00 | 0.00 | 86 | 1017.6 |
| 20260508052608 | 52 | 74 | 3.0 | 6.0 | 0.00 | 0.00 | 0.00 | 86 | 1017.6 |
| 20260508052035 | 52 | 84 | 2.0 | 6.0 | 0.00 | 0.00 | 0.00 | 85 | 1017.5 |
| 20260508051545 | 52 | 67 | 1.0 | 9.0 | 0.00 | 0.00 | 0.00 | 85 | 1017.5 |
| 20260508051028 | 52 | 105 | 3.0 | 9.0 | 0.00 | 0.00 | 0.00 | 85 | 1017.4 |
| 20260508050536 | 52 | 111 | 4.0 | 9.0 | 0.00 | 0.00 | 0.00 | 85 | 1017.4 |
| 20260508050035 | 52 | 61 | 2.0 | 9.0 | 0.00 | 0.00 | 0.00 | 85 | 1017.4 |
| 20260508045544 | 52 | 135 | 1.0 | 8.0 | 0.00 | 0.00 | 0.00 | 85 | 1017.3 |
| 20260508045029 | 52 | 106 | 2.0 | 8.0 | 0.00 | 0.00 | 0.00 | 84 | 1017.3 |
| 20260508044534 | 52 | 88 | 1.0 | 9.0 | 0.00 | 0.00 | 0.00 | 85 | 1017.2 |
| 20260508044040 | 52 | 119 | 1.0 | 10.0 | 0.00 | 0.00 | 0.00 | 84 | 1017.3 |
| 20260508043528 | 52 | 77 | 4.0 | 10.0 | 0.00 | 0.00 | 0.00 | 84 | 1017.2 |
| 20260508043036 | 52 | 115 | 1.0 | 4.0 | 0.00 | 0.00 | 0.00 | 84 | 1017.2 |
| 20260508042542 | 52 | 66 | 1.0 | 6.0 | 0.00 | 0.00 | 0.00 | 84 | 1017.2 |
| 20260508042030 | 52 | 63 | 3.0 | 6.0 | 0.00 | 0.00 | 0.00 | 84 | 1017.2 |
| 20260508041540 | 53 | 56 | 2.0 | 6.0 | 0.00 | 0.00 | 0.00 | 84 | 1017.1 |
| 20260508041028 | 53 | 121 | 1.0 | 7.0 | 0.00 | 0.00 | 0.00 | 84 | 1017.1 |
| 20260508040537 | 53 | 82 | 2.0 | 7.0 | 0.00 | 0.00 | 0.00 | 83 | 1017.1 |
| 20260508040036 | 53 | 73 | 2.0 | 8.0 | 0.00 | 0.00 | 0.00 | 83 | 1017.1 |
| 20260508035545 | 53 | 80 | 2.0 | 8.0 | 0.00 | 0.00 | 0.00 | 83 | 1017.1 |
| 20260508035034 | 53 | 58 | 2.0 | 7.0 | 0.00 | 0.00 | 0.00 | 83 | 1017.1 |
| 20260508034543 | 53 | 66 | 2.0 | 7.0 | 0.00 | 0.00 | 0.00 | 83 | 1017.0 |
| 20260508034047 | 53 | 63 | 2.0 | 5.0 | 0.00 | 0.00 | 0.00 | 83 | 1017.0 |
| 20260508033532 | 53 | 53 | 2.0 | 5.0 | 0.00 | 0.00 | 0.00 | 82 | 1017.0 |
| 20260508033041 | 53 | 46 | 3.0 | 5.0 | 0.00 | 0.00 | 0.00 | 82 | 1017.1 |
| 20260508032550 | 53 | 69 | 2.0 | 6.0 | 0.00 | 0.00 | 0.00 | 82 | 1017.0 |
| 20260508032037 | 53 | 86 | 2.0 | 6.0 | 0.00 | 0.00 | 0.00 | 82 | 1017.1 |
| 20260508031601 | 53 | 67 | 2.0 | 5.0 | 0.00 | 0.00 | 0.00 | 82 | 1017.0 |
| 20260508031047 | 53 | 108 | 1.0 | 3.0 | 0.00 | 0.00 | 0.00 | 82 | 1017.0 |
| 20260508030534 | 53 | 70 | 2.0 | 3.0 | 0.00 | 0.00 | 0.00 | 82 | 1017.0 |
| 20260508030035 | 53 | 65 | 2.0 | 3.0 | 0.00 | 0.00 | 0.00 | 82 | 1017.0 |
| 20260508025603 | 54 | 61 | 1.0 | 3.0 | 0.00 | 0.00 | 0.00 | 81 | 1017.0 |
| 20260508025027 | 54 | 61 | 0.0 | 3.0 | 0.00 | 0.00 | 0.00 | 81 | 1017.0 |
| 20260508024537 | 54 | 99 | 1.0 | 5.0 | 0.00 | 0.00 | 0.00 | 81 | 1017.0 |
| 20260508024028 | 54 | 91 | 3.0 | 5.0 | 0.00 | 0.00 | 0.00 | 80 | 1017.0 |
| 20260508023557 | 54 | 64 | 2.0 | 5.0 | 0.00 | 0.00 | 0.00 | 80 | 1016.9 |
| 20260508023042 | 54 | 77 | 2.0 | 5.0 | 0.00 | 0.00 | 0.00 | 80 | 1017.0 |
| 20260508022530 | 54 | 52 | 2.0 | 4.0 | 0.00 | 0.00 | 0.00 | 80 | 1017.0 |
| 20260508022041 | 54 | 74 | 2.0 | 5.0 | 0.00 | 0.00 | 0.00 | 80 | 1017.0 |
| 20260508021549 | 54 | 74 | 1.0 | 5.0 | 0.00 | 0.00 | 0.00 | 79 | 1017.0 |
| 20260508021056 | 54 | 53 | 0.0 | 3.0 | 0.00 | 0.00 | 0.00 | 79 | 1017.0 |
| 20260508020605 | 54 | 53 | 0.0 | 3.0 | 0.00 | 0.00 | 0.00 | 79 | 1017.1 |
| 20260508020046 | 54 | 53 | 1.0 | 4.0 | 0.00 | 0.00 | 0.00 | 79 | 1017.1 |
| 20260508015533 | 54 | 53 | 1.0 | 4.0 | 0.00 | 0.00 | 0.00 | 79 | 1017.0 |
| 20260508015041 | 54 | 55 | 1.0 | 3.0 | 0.00 | 0.00 | 0.00 | 79 | 1017.0 |
| 20260508014545 | 54 | 60 | 1.0 | 3.0 | 0.00 | 0.00 | 0.00 | 79 | 1017.0 |
| 20260508014033 | 54 | 60 | 1.0 | 4.0 | 0.00 | 0.00 | 0.00 | 79 | 1016.9 |
| 20260508013541 | 54 | 55 | 1.0 | 4.0 | 0.00 | 0.00 | 0.00 | 78 | 1017.0 |
| 20260508013046 | 54 | 55 | 2.0 | 3.0 | 0.00 | 0.00 | 0.00 | 78 | 1017.0 |
| 20260508012537 | 54 | 55 | 1.0 | 3.0 | 0.00 | 0.00 | 0.00 | 78 | 1017.0 |
| 20260508012042 | 54 | 55 | 1.0 | 4.0 | 0.00 | 0.00 | 0.00 | 78 | 1017.0 |
| 20260508011530 | 54 | 55 | 2.0 | 4.0 | 0.00 | 0.00 | 0.00 | 78 | 1017.0 |
| 20260508011037 | 54 | 74 | 1.0 | 4.0 | 0.00 | 0.00 | 0.00 | 78 | 1017.0 |
| 20260508010527 | 54 | 74 | 1.0 | 5.0 | 0.00 | 0.00 | 0.00 | 77 | 1017.0 |
| 20260508010029 | 54 | 63 | 1.0 | 5.0 | 0.00 | 0.00 | 0.00 | 77 | 1017.0 |
| 20260508005535 | 54 | 50 | 1.0 | 5.0 | 0.00 | 0.00 | 0.00 | 77 | 1017.0 |
| 20260508005106 | 54 | 80 | 2.0 | 5.0 | 0.00 | 0.00 | 0.00 | 77 | 1017.0 |
| 20260508004534 | 55 | 62 | 0.0 | 2.0 | 0.00 | 0.00 | 0.00 | 77 | 1017.0 |
| 20260508004107 | 55 | 62 | 0.0 | 3.0 | 0.00 | 0.00 | 0.00 | 77 | 1017.0 |
| 20260508003532 | 55 | 62 | 1.0 | 4.0 | 0.00 | 0.00 | 0.00 | 77 | 1017.0 |
| 20260508003041 | 55 | 62 | 1.0 | 4.0 | 0.00 | 0.00 | 0.00 | 76 | 1017.1 |
| 20260508002531 | 55 | 62 | 1.0 | 4.0 | 0.00 | 0.00 | 0.00 | 76 | 1017.1 |
| 20260508002040 | 55 | 62 | 1.0 | 4.0 | 0.00 | 0.00 | 0.00 | 76 | 1017.1 |
| 20260508001529 | 55 | 36 | 1.0 | 2.0 | 0.00 | 0.00 | 0.00 | 76 | 1017.1 |
| 20260508001032 | 55 | 36 | 1.0 | 2.0 | 0.00 | 0.00 | 0.00 | 76 | 1017.2 |
| 20260508000542 | 55 | 36 | 0.0 | 2.0 | 0.00 | 0.00 | 0.00 | 76 | 1017.2 |
| 20260508000044 | 55 | 36 | 0.0 | 3.0 | 0.00 | 0.00 | 0.00 | 76 | 1017.2 |
| 20260507235534 | 55 | 36 | 1.0 | 3.0 | 0.00 | 0.00 | 0.00 | 76 | 1017.2 |
| 20260507235043 | 55 | 36 | 1.0 | 3.0 | 0.00 | 0.00 | 0.00 | 76 | 1017.2 |
| 20260507234527 | 55 | 36 | 1.0 | 3.0 | 0.00 | 0.00 | 0.00 | 76 | 1017.3 |
| 20260507234034 | 55 | 36 | 0.0 | 3.0 | 0.00 | 0.00 | 0.00 | 76 | 1017.3 |
| 20260507233544 | 55 | 36 | 1.0 | 4.0 | 0.00 | 0.00 | 0.00 | 75 | 1017.3 |
| 20260507233034 | 55 | 36 | 2.0 | 4.0 | 0.00 | 0.00 | 0.00 | 75 | 1017.3 |
| 20260507232543 | 55 | 36 | 1.0 | 3.0 | 0.00 | 0.00 | 0.00 | 75 | 1017.3 |
| 20260507232027 | 55 | 36 | 2.0 | 3.0 | 0.00 | 0.00 | 0.00 | 75 | 1017.3 |
| 20260507231556 | 55 | 36 | 1.0 | 3.0 | 0.00 | 0.00 | 0.00 | 74 | 1017.3 |
| 20260507231043 | 55 | 36 | 1.0 | 4.0 | 0.00 | 0.00 | 0.00 | 75 | 1017.3 |
| 20260507230532 | 55 | 36 | 2.0 | 4.0 | 0.00 | 0.00 | 0.00 | 74 | 1017.3 |
| 20260507230034 | 55 | 52 | 1.0 | 4.0 | 0.00 | 0.00 | 0.00 | 74 | 1017.4 |
| 20260507225538 | 55 | 57 | 2.0 | 4.0 | 0.00 | 0.00 | 0.00 | 74 | 1017.4 |
| 20260507225045 | 55 | 47 | 2.0 | 6.0 | 0.00 | 0.00 | 0.00 | 74 | 1017.3 |
| 20260507224554 | 55 | 47 | 3.0 | 6.0 | 0.00 | 0.00 | 0.00 | 73 | 1017.4 |
| 20260507224042 | 56 | 63 | 2.0 | 5.0 | 0.00 | 0.00 | 0.00 | 73 | 1017.4 |
| 20260507223527 | 56 | 43 | 3.0 | 5.0 | 0.00 | 0.00 | 0.00 | 73 | 1017.4 |
| 20260507223035 | 56 | 31 | 1.0 | 5.0 | 0.00 | 0.00 | 0.00 | 73 | 1017.5 |
| 20260507222544 | 56 | 23 | 2.0 | 5.0 | 0.00 | 0.00 | 0.00 | 73 | 1017.5 |
| 20260507222053 | 56 | 57 | 2.0 | 5.0 | 0.00 | 0.00 | 0.00 | 72 | 1017.5 |
| 20260507221543 | 56 | 21 | 2.0 | 6.0 | 0.00 | 0.00 | 0.00 | 72 | 1017.4 |
| 20260507221028 | 56 | 37 | 1.0 | 6.0 | 0.00 | 0.00 | 0.00 | 72 | 1017.5 |
| 20260507220539 | 56 | 37 | 2.0 | 6.0 | 0.00 | 0.00 | 0.00 | 71 | 1017.4 |
| 20260507220040 | 56 | 31 | 2.0 | 6.0 | 0.00 | 0.00 | 0.00 | 71 | 1017.4 |
| 20260507215528 | 56 | 47 | 2.0 | 6.0 | 0.00 | 0.00 | 0.00 | 71 | 1017.4 |
| 20260507215038 | 56 | 53 | 2.0 | 5.0 | 0.00 | 0.00 | 0.00 | 71 | 1017.3 |